Hourly Data Report for July 26, 2013

All times are specified in Local Standard Time (LST). Add 1 hour to adjust for Daylight Saving Time where and when it is observed.

VICTORIA INTL A
BRITISH COLUMBIA

48°38'50.000" N
123°25'33.000" W
19.50 m
1018621
71799
YYJ

Download Data

Hourly Data (July 2013)
Hourly Data Report for July 26, 2013
Temp Definition
°C
Dew Point Temp Definition
°C
Rel Hum Definition
%
Wind Dir Definition
10's deg

Wind Spd Definition
km/h
Visibility Definition
km
Stn Press Definition
kPa
Hmdx Definition


Wind Chill Definition


Weather Definition


TIME
00:00 Legend Double Dagger 14.1 10.7 80 9 4 48.3 101.65     LegendNANA
01:00 Legend Double Dagger 12.8 10.4 85 10 4 48.3 101.69     Clear
02:00 Legend Double Dagger 12.4 10.5 88 6 5 48.3 101.74     LegendNANA
03:00 Legend Double Dagger 11.7 10.1 90 7 4 48.3 101.75     LegendNANA
04:00 Legend Double Dagger 12.1 10.2 88 12 5 48.3 101.79     Clear
05:00 Legend Double Dagger 11.2 9.8 91 5 3 48.3 101.81     LegendNANA
06:00 Legend Double Dagger 12.9 10.8 87 14 2 48.3 101.85     LegendNANA
07:00 Legend Double Dagger 15.7 11.9 78 27 1 48.3 101.87     Mainly Clear
08:00 Legend Double Dagger 17.7 12.0 69 12 8 48.3 101.89     LegendNANA
09:00 Legend Double Dagger 18.6 11.5 63 13 13 48.3 101.89     LegendNANA
10:00 Legend Double Dagger 18.9 11.6 62 12 17 48.3 101.88     Mainly Clear
11:00 Legend Double Dagger 18.7 11.6 63 12 22 48.3 101.86     LegendNANA
12:00 Legend Double Dagger 19.7 12.1 61 13 16 48.3 101.84     LegendNANA
13:00 Legend Double Dagger 21.1 12.1 56 9 19 48.3 101.81     Clear
14:00 Legend Double Dagger 20.0 12.1 60 13 14 48.3 101.79     LegendNANA
15:00 Legend Double Dagger 19.7 11.6 59 10 12 48.3 101.78     LegendNANA
16:00 Legend Double Dagger 20.1 11.7 58 6 13 48.3 101.75     Clear
17:00 Legend Double Dagger 20.6 11.4 55 9 10 48.3 101.71     LegendNANA
18:00 Legend Double Dagger 21.0 11.7 55 13 8 48.3 101.68     LegendNANA
19:00 Legend Double Dagger 20.4 10.9 54 12 7 48.3 101.66     Clear
20:00 Legend Double Dagger 16.8 11.2 69 10 8 48.3 101.66     LegendNANA
21:00 Legend Double Dagger 17.7 11.4 66 12 5 48.3 101.72     LegendNANA
22:00 Legend Double Dagger 14.0 10.6 80 7 3 48.3 101.73     Clear
23:00 Legend Double Dagger 13.8 10.6 81 7 5 48.3 101.75     LegendNANA

Notes on Data Quality.

Legend

  • E = Estimated
  • M = Missing
  • NA = Not Available
  • ‡ = Partner data that is not subject to review by the National Climate Archives
Date modified: